Cloud_Cover
13 5 5 64 55 100 100 100 100 100 77 19 1 0 0 26 100 5 5 2 0 0 2 98 80 88 100 54 5 5 33 66 100 100 93 100 99 51 18 49 90 17 18
5 5 5 20 81 96 100 100 100 100 100 100 95 47 3 0 0 0 0 3 0 0 0 5 5 27 5 5 5 5 15 20 14 26 99 65 100 95 5 24 92 13 27
0 0 5 46 94 100 100 89 93 100 100 100 100 89 27 57 30 0 2 1 0 0 10 1 5 5 5 93 9 94 86 48 0 5 5 55 97 8 11 25 60 78 47
30 4 0 93 100 100 100 100 86 89 98 100 100 100 100 100 73 21 5 25 5 0 2 3 49 5 5 4 5 4 5 6 2 2 7 65 68 99 32 32 100 99 100
100 9 0 83 100 100 99 100 100 100 100 100 100 100 100 100 76 26 55 5 5 5 0 0 8 5 5 5 5 1 5 5 6 11 4 5 8 14 57 20 12 88 100
100 100 8 5 100 100 100 100 100 100 100 100 100 100 100 100 100 100 70 56 23 73 6 2 1 5 0 0 13 8 100 23 11 87 85 13 95 100 71 28 12 100 99
6 23 7 21 43 100 100 100 100 100 100 100 100 100 100 100 100 100 100 88 73 59 3 0 0 1 0 1 13 34 93 87 99 100 100 100 100 100 72 95 100 100 79
56 39 81 88 89 100 100 100 100 100 100 100 100 100 100 100 100 100 100 100 98 6 5 0 0 0 5 3 24 28 24 98 100 100 100 100 100 100 98 98 94 100 100
100 100 100 100 100 100 100 100 100 100 100 100 100 100 100 100 100 100 100 100 100 96 6 5 0 0 7 88 22 100 78 77 100 100 100 100 60 30 68 96 99 100 100
23 50 26 21 82 99 100 100 100 100 100 100 100 100 98 100 100 100 100 100 100 100 100 64 100 84 100 100 64 12 28 91 81 93 99 100 100 50 88 92 91 48 72
0 16 34 25 16 21 90 100 100 100 100 100 100 100 100 100 100 100 100 100 100 100 100 100 100 100 100 100 96 96 100 98 96 95 97 100 100 100 100 100 92 97 100
66 98 91 49 68 71 76 29 100 99 100 100 100 100 100 100 100 100 100 100 100 100 100 100 100 100 100 100 100 100 100 100 100 100 100 100 100 100 100 100 100 100 100
18 37 100 100 96 100 100 100 100 100 100 100 100 100 100 100 100 100 100 100 100 100 100 100 100 100 100 100 100 100 100 100 100 100 100 100 100 100 100 100 100 100 100
100 29 100 100 99 100 100 100 100 100 100 100 100 100 100 100 100 100 100 100 100 100 100 100 100 100 100 100 100 100 100 100 100 100 100 100 100 100 100 100 96 71 56
100 70 100 100 100 100 100 100 100 100 93 100 100 100 100 100 100 100 100 100 100 100 100 100 100 100 100 100 100 100 100 100 100 100 100 99 92 100 100 100 100 90 94
42 91 92 100 74 100 100 100 100 99 100 92 100 100 100 100 100 100 100 100 100 100 100 100 100 100 100 100 100 100 100 100 92 100 100 100 99 89 78 97 100 98 100
82 98 27 27 32 44 83 100 100 100 100 100 100 100 100 100 100 100 100 100 100 100 100 100 100 100 100 100 100 100 100 100 100 100 98 100 82 66 98 100 100 40 48
10 96 20 14 16 20 17 76 98 69 39 81 100 100 100 100 100 100 100 100 100 100 100 100 100 100 100 100 100 100 100 100 85 81 96 80 99 99 100 90 71 94 96
92 59 22 20 3 6 0 2 2 17 13 23 100 100 100 100 100 100 100 100 100 100 100 100 100 100 100 100 100 100 100 100 100 100 100 100 100 100 100 100 100 100 100
89 48 7 12 100 3 4 6 2 13 21 9 100 100 100 100 74 30 70 100 100 100 100 100 100 100 100 100 100 93 100 100 100 100 100 100 100 100 100 100 100 100 100
6 5 0 0 0 0 0 0 0 32 81 40 20 57 94 9 10 78 12 18 66 100 100 100 100 100 100 100 100 100 100 100 100 100 100 100 100 99 93 94 9 5 0
11 5 4 0 1 0 0 0 0 0 0 0 0 6 58 3 0 0 4 42 13 4 0 1 10 89 100 100 100 100 100 100 100 81 41 8 43 34 12 13 0 0 0
26 6 8 5 5 5 0 0 0 0 0 0 0 0 17 1 0 0 0 0 0 0 0 2 2 8 2 4 12 19 5 2 1 0 0 0 0 0 0 0 0 0 0
95 73 43 5 5 5 4 0 0 10 1 0 0 0 0 0 0 0 0 0 0 0 0 0 0 0 0 0 0 0 0 0 0 0 0 0 0 0 0 0 0 0 0
100 100 90 5 5 4 3 5 5 0 0 0 0 0 0 0 0 0 0 0 0 0 0 0 0 0 0 0 0 0 0 0 0 0 0 0 0 0 0 0 0 0 0
100 99 20 5 5 4 1 2 5 1 0 0 0 0 0 0 0 0 0 0 1 5 34 34 5 0 4 3 4 4 3 0 0 0 0 0 0 0 4 5 5 5 5